Portada
METAR-TAF:

METAR-TAF

Aeroports :

Moose Lake Carlton County Airport

Moose Lake, Minnesota, Estats Units d'Amèrica

latitud: 46-25N, longitud: 092-48W, altitud: 328 m

Observació

L'informe es va fer fa 24 minuts, a les 03:55 UTC
Vent 4 kt del Nord-Est
Temperatura 16°C
Humitat 94%
Pressió 1020 hPa
Visibilitat: 16.1 km
Cel cobert a una alçada de 400 ft

METAR: KMZH 180355Z AUTO 05004KT 10SM OVC004 16/15 A3011 RMK AO2

Hora: 23:19 (04:19 UTC)


TAF: manca

Observacions i pronòstics meteorològics de més de 4000 aeroports (METAR i TAF).

Les estacions disponibles són els punts grocs i vermells al mapa.

Posi el ratolí al punt desitjat per veure el nom de l'estació.

Feu clic per veure les observacions i els pronòstics meteorològics.

Per canviar el mapa: feu clic els botons verds amb una creu de color negre per apropar; al botó verd amb un guió per allunyar la imatge; o en les fletxes verdes per a mapes adjacents.


METAR-TAF: